Regional Weather Roundup
Issued by NWS

Home | Current Version | Previous Version | Text Only | Print | Product List | Glossary Off
Versions: 1 2 3 4 5 6 7 8 9 10 11 12 13 14 15 16 17 18 19 20 21 22 23 24 25 26 27 28 29 30 31 32 33 34 35 36 37 38 39 40 41 42 43 44 45 46 47 48 49 50

000
ASUS43 KMKX 231159
RWRWI

WISCONSIN REGIONAL WEATHER ROUNDUP
NATIONAL WEATHER SERVICE MILWAUKEE/SULLIVAN WI
700 AM CDT WED JUL 23 2014

NOTE: "FAIR" INDICATES FEW OR NO CLOUDS BELOW 12,000 FEET WITH NO
SIGNIFICANT WEATHER AND/OR OBSTRUCTIONS TO VISIBILITY.

WIZ001-002-006>008-014>016-023>028-231300-
NORTHWEST WISCONSIN

CITY           SKY/WX    TMP DP  RH WIND       PRES   REMARKS
SUPERIOR ARPT  SUNNY     51  51 100 CALM      30.23S
ASHLAND        SUNNY     54  53  97 CALM      30.24R
6HR MIN TEMP:  52; 6HR MAX TEMP:  57;

HAYWARD        FOG       52  52 100 CALM      30.24R VSB 1/2
6HR MIN TEMP:  50; 6HR MAX TEMP:  56;

SIREN          SUNNY     53  50  92 CALM      30.25R
RICE LAKE      FOG       55  53  96 CALM      30.24R VSB 3/4
LADYSMITH      MOSUNNY   58  57  97 CALM      30.24R
EAU CLAIRE     NOT AVBL
MENOMONIE      MOSUNNY   60  59  96 CALM      30.23R
NEW RICHMOND   SUNNY     57  57 100 CALM      30.25R FOG
OSCEOLA        MOSUNNY   55  55  99 CALM      30.28R
$$

WIZ003>005-009-010-017-018-231300-
NORTH CENTRAL WISCONSIN

CITY           SKY/WX    TMP DP  RH WIND       PRES   REMARKS
WOODRUFF       SUNNY     52  49  89 CALM      30.23R
RHINELANDER    SUNNY     56  54  93 CALM      30.23R
6HR MIN TEMP:  48; 6HR MAX TEMP:  57;

EAGLE RIVER    MOSUNNY   49  49 100 CALM      30.22R
LAND O LAKES   MOSUNNY   50  50 100 CALM      30.23R
PHILLIPS       SUNNY     53  53 100 CALM      30.23R
TOMAHAWK       FOG       50  49  97 CALM      30.23S VSB<1/4
MEDFORD        SUNNY     53  52  99 CALM      30.22S
MERRILL        SUNNY     51  51 100 CALM      30.22R
$$

WIZ029-030-035-036-043>047-231300-
CENTRAL WISCONSIN

CITY           SKY/WX    TMP DP  RH WIND       PRES   REMARKS
WAUSAU         SUNNY     59  57  93 N3        30.21R
6HR MIN TEMP:  57; 6HR MAX TEMP:  62;

MOSINEE        SUNNY     57  57 100 N7        30.23R
MARSHFIELD     SUNNY     62  57  83 VRB3      30.22R
6HR MIN TEMP:  55; 6HR MAX TEMP:  63;

STEVENS POINT  SUNNY     55  55  98 N3        30.21R
WAUPACA        SUNNY     58  57  94 CALM      30.19R
WAUTOMA        NOT AVBL
WISC RAPIDS    SUNNY     61  58  90 N7        30.22R
6HR MIN TEMP:  54; 6HR MAX TEMP:  65;

CAMP DOUGLAS   MOSUNNY   52  52 100 W5        30.20R
$$

WIZ011>013-019>022-031-037>040-048>050-231300-
NORTHEAST WISCONSIN

CITY           SKY/WX    TMP DP  RH WIND       PRES   REMARKS
ANTIGO         SUNNY     54  54 100 N5        30.22R
STURGEON BAY   MOSUNNY   61  52  72 N17       30.18R
6HR MIN TEMP:  59; 6HR MAX TEMP:  64;

GREEN BAY      SUNNY     61  56  83 N9        30.18R
6HR MIN TEMP:  57; 6HR MAX TEMP:  62;

MANITOWOC      NOT AVBL
APPLETON       MOSUNNY   59  55  88 N7        30.18R
CLINTONVILLE   SUNNY     59  54  82 N6        30.19R
OSHKOSH        SUNNY     62  56  80 N10       30.18R
6HR MIN TEMP:  60; 6HR MAX TEMP:  67;

$$

WIZ032>034-041-042-053>061-231300-
SOUTHWEST WISCONSIN

CITY           SKY/WX    TMP DP  RH WIND       PRES   REMARKS
LA CROSSE      SUNNY     66  61  84 N3        30.20S
6HR MIN TEMP:  61; 6HR MAX TEMP:  72;

SPARTA         SUNNY     53  52  96 CALM      30.20F
VIROQUA        FAIR      59  59 100 CALM      30.20F
BOSCOBEL       SUNNY     62  58  86 CALM      30.19S
6HR MIN TEMP:  58; 6HR MAX TEMP:  70;

PRAIRIE DU CHI SUNNY     63  57  79 CALM      30.18S
PLATTEVILLE    FAIR      61  59  93 N6        30.19R
$$

WIZ056-057-062-063-064-067-068-231300-
SOUTH CENTRAL WISCONSIN

CITY           SKY/WX    TMP DP  RH WIND       PRES   REMARKS
BARABOO/DELLS  SUNNY     59  56  90 CALM      30.19R
LONE ROCK      NOT AVBL
WATERTOWN      SUNNY     61  58  89 N6        30.16R
MADISON        SUNNY     62  56  80 N7        30.18R
6HR MIN TEMP:  59; 6HR MAX TEMP:  71;

MIDDLETON      FAIR      62  57  85 N6        30.19R
MONROE         SUNNY     61  59  94 N6        30.17R
JANESVILLE     SUNNY     66  59  77 NE6       30.15R
$$

WIZ051-052-058>065-066-070>072-231300-
SOUTHEAST WISCONSIN

CITY           SKY/WX    TMP DP  RH WIND       PRES   REMARKS
MILWAUKEE      SUNNY     62  54  74 N13G22    30.15R
6HR MIN TEMP:  60; 6HR MAX TEMP:  63;

WAUKESHA       SUNNY     61  55  82 N12       30.18R
MILWAUKEE/TIMM SUNNY     61  52  72 N5        30.17R
RACINE         SUNNY     61  55  81 N15       30.15R
6HR MIN TEMP:  59; 6HR MAX TEMP:  66;

BURLINGTON     SUNNY     58  56  91 N5        30.14F
KENOSHA        SUNNY     62  55  77 N10G22    30.14R
6HR MIN TEMP:  60; 6HR MAX TEMP:  67;

FOND DU LAC    SUNNY     61  56  83 NW7       30.18R
6HR MIN TEMP:  60; 6HR MAX TEMP:  68;

SHEBOYGAN      SUNNY     61  56  83 NW5       30.17R
6HR MIN TEMP:  56; 6HR MAX TEMP:  62;

WEST BEND      SUNNY     59  54  82 N3        30.17R
JUNEAU         SUNNY     58  55  87 N5        30.19R
$$

LSZ147-162-231300-
LAKE SUPERIOR

STATION/POSITION TIME  TEMP    WIND        PRES    WAVE
                       AIR SEA DIR/SP/G            HT/PER
                 (UTC) (F)     (DEG/KT/KT) (MB)    (FT/S)
$$

LMZ867-665-643>646-231300-
LAKE MICHIGAN

STATION/POSITION TIME  TEMP    WIND        PRES    WAVE
                       AIR SEA DIR/SP/G            HT/PER
                 (UTC) (F)     (DEG/KT/KT) (MB)    (FT/S)
$$

TC  - TEMPERATURE IN CELSIUS
VSB - VISIBILITY IN STATUTE MILES
WCI - WIND CHILL INDEX
HX  - HEAT INDEX



USA.gov is the U.S. government's official web portal to all federal, state and local government web resources and services.